Regional Weather Roundup
Issued by NWS

Home | Current Version | Previous Version | Graphics & Text | Print | Product List | Glossary On
Versions: 1 2 3 4 5 6 7 8 9 10 11 12 13 14 15 16 17 18 19 20 21 22 23 24 25 26 27 28 29 30 31 32 33 34 35 36 37 38 39 40 41 42 43 44 45 46 47 48 49 50
000
ASUS43 KOAX 220310
RWRNE

WEATHER ROUNDUP FOR NEBRASKA
NATIONAL WEATHER SERVICE OMAHA NE
900 PM CST WED FEB 21 2018

NOTES: SATELLITE DATA IS BEING USED TO AUGMENT CLOUD COVER ABOVE
       12000 FEET.
       "FAIR" INDICATES FEW OR NO CLOUDS BELOW 12,000 FEET WITH NO
       SIGNIFICANT WEATHER AND/OR OBSTRUCTIONS TO VISIBILITY.


NEZ001>004-019>022-054>056-220400-
NEBRASKA PANHANDLE

CITY           SKY/WX    TMP DP  RH WIND       PRES   REMARKS
SCOTTSBLUFF    FAIR      16   9  74 E12       30.21S WCI   3
ALLIANCE       FAIR      11   7  84 S13       30.22R WCI  -4
CHADRON        FAIR       0  -5  79 W9        30.25R WCI -15
GORDON         FAIR      13   5  70 CALM      30.25R
KIMBALL        FAIR      13   7  78 S12       30.17S WCI  -1
SIDNEY         FAIR      12   7  80 SE6       30.22S WCI   3
$$

NEZ057>060-069>072-079>082-220400-
SOUTHWEST NEBRASKA

CITY           SKY/WX    TMP DP  RH WIND       PRES   REMARKS
NORTH PLATTE   CLOUDY    21  12  68 SE7       30.37S WCI  12
IMPERIAL       CLOUDY    21  14  74 SE6       30.32R WCI  13
LEXINGTON      CLOUDY    27   9  47 E10       30.39F WCI  17
MCCOOK         CLOUDY    26   9  48 E9        30.36S WCI  17
OGALLALA       FAIR      16  10  78 E5        30.31F WCI   9
$$

NEZ005>010-023>029-035>040-094-220400-
NORTH CENTRAL NEBRASKA

CITY           SKY/WX    TMP DP  RH WIND       PRES   REMARKS
VALENTINE      FAIR      14   5  67 S12       30.35S WCI   0
AINSWORTH      FAIR      13   6  74 S8        30.38S WCI   2
BROKEN BOW     CLOUDY    24  11  57 SE8       30.39F WCI  15
O`NEILL        CLOUDY    19  11  73 SE6       30.46F WCI  10
ORD            CLOUDY    21  12  68 SE7       30.45R WCI  12
THEDFORD       FAIR      12   7  79 CALM      30.36S
$$

NEZ041-046>049-061>064-073>077-083>087-220400-
SOUTH CENTRAL NEBRASKA

CITY           SKY/WX    TMP DP  RH WIND       PRES   REMARKS
GRAND ISLAND   CLOUDY    24  12  60 E10       30.46F WCI  14
AURORA         CLOUDY    23  12  61 E10       30.46F WCI  12
HASTINGS       CLOUDY    24   6  46 E9        30.44F WCI  14
HEBRON         CLOUDY    26  14  60 E9        30.47F WCI  17
HOLDREGE       CLOUDY    25   9  49 E9        30.40S WCI  16
KEARNEY        CLOUDY    25  10  53 E10       30.42F WCI  15
YORK           CLOUDY    23  12  63 E13       30.48S WCI  11
$$

NEZ011>018-030>034-042>045-220400-
NORTHEAST NEBRASKA

CITY           SKY/WX    TMP DP  RH WIND       PRES   REMARKS
NORFOLK        CLOUDY    20  12  71 SE8       30.51R WCI  10
ALBION         CLOUDY    20  12  71 E5        30.49S WCI  14
BLAIR          CLOUDY    24  17  76 NE8       30.53S WCI  14
COLUMBUS       CLOUDY    22  15  75 E9        30.53S WCI  12
FREMONT        CLOUDY    24  16  72 E7        30.55S WCI  16
TEKAMAH        CLOUDY    24  16  71 E8        30.56S WCI  15
WAYNE          CLOUDY    19  12  77 CALM      30.54R
$$

NEZ050>053-065>068-078-088>093-220400-
SOUTHEAST NEBRASKA

CITY           SKY/WX    TMP DP  RH WIND       PRES   REMARKS
LINCOLN        CLOUDY    25  14  63 NE13      30.53S WCI  14
OMAHA EPPLEY   CLOUDY    24  14  65 E6        30.57S WCI  17
BEATRICE       CLOUDY    26  18  71 E12       30.49F WCI  16
FALLS CITY     CLOUDY    27  21  78 E8        30.50F WCI  19
NEBRASKA CITY  CLOUDY    26  22  84 E12       30.51S WCI  16
PLATTSMOUTH    CLOUDY    24  18  77 NE9       30.53R WCI  15
$$

NEZ044-045-051>053-067-220400-
OMAHA AREA

CITY           SKY/WX    TMP DP  RH WIND       PRES   REMARKS
OMAHA EPPLEY   CLOUDY    24  14  65 E6        30.57S WCI  17
BLAIR          CLOUDY    24  17  76 NE8       30.53S WCI  14
FREMONT        CLOUDY    24  16  72 E7        30.55S WCI  16
MILLARD        CLOUDY    26  16  64 E5        30.55S WCI  21
OFFUTT AFB     CLOUDY    24  15  68 E9        30.55R WCI  15
PLATTSMOUTH    CLOUDY    24  18  77 NE9       30.53R WCI  15
WAHOO          CLOUDY    24  16  70 NE9       30.53F WCI  15
$$




USA.gov is the U.S. government's official web portal to all federal, state and local government web resources and services.